Location: *
(35.5304°S, 40.2666°W)
Time: 00:35:10
(UTC+00:00)

Daily predictions for brighter satellites

Satellite Brightness Start Highest point End
(mag) Time Altitude Azimuth Time Altitude Azimuth Time Altitude Azimuth
USA 59 Rocket 4.1 00:32:34 10° SSW 00:36:43 13° SSE 00:40:38 10° SE
Cosmos 2227 Rocket 4.4 00:39:41 10° SSW 00:41:27 21° SSW 00:41:27 21° SSW
ATLAS CENTAUR R/B 4.2 00:39:14 10° SW 00:46:22 51° SSW 00:46:22 51° SSW
Cosmos 2297 Rocket 4.4 00:43:58 10° SW 00:45:54 21° SW 00:45:54 21° SW
ACS3 Solar Sail 4.5 01:14:47 10° SW 01:16:51 12° WSW 01:18:55 10° W
USA 59 Rocket 3.1 02:22:26 10° SSW 02:30:36 29° SE 02:30:36 29° SE
USA 59 Rocket 3.0 04:12:32 10° SW 04:16:51 29° SW 04:16:51 29° SW
SL-16 R/B 4.2 04:44:15 20° E 04:44:15 20° E 04:48:11 10° SE
USA 234 4.2 04:42:41 10° SSE 04:47:52 39° SSW 04:47:52 39° SSW
Cosmos 2278 Rocket 3.8 04:49:09 10° SSW 04:52:00 29° S 04:52:00 29° S
Cosmos 2100 Rocket 4.4 05:07:33 58° E 05:07:34 58° E 05:13:46 10° SSE
Cosmos 2237 Rocket 3.2 05:10:01 40° S 05:10:01 40° S 05:13:43 10° SSE
Meteor 1-27 Rocket 4.1 05:20:22 10° S 05:24:47 56° S 05:24:47 56° S
ISS -0.5 05:38:25 10° ENE 05:38:25 10° ENE 05:38:28 10° ENE
Cosmos 1607 4.5 05:37:53 43° SW 05:37:53 43° SW 05:43:10 10° SSE
Cosmos 1943 Rocket 2.2 05:31:57 10° SSW 05:37:12 76° S 05:37:12 76° S
Meteor 2-21 Rocket 4.3 05:31:51 10° S 05:38:09 82° W 05:38:24 80° NW
Meteor 2-8 Rocket 4.3 05:44:45 69° W 05:44:45 69° W 05:50:51 10° S
Cosmos 158 Rocket 4.2 05:45:22 62° SSW 05:45:22 62° SSW 05:50:04 10° SSE
Cosmos 1743 4.4 05:46:33 29° SSE 05:46:33 29° SSE 05:48:28 10° SSE
DELTA 2 R/B (1) 3.5 05:51:12 71° WSW 05:51:39 76° SSW 05:57:17 10° ESE
Cosmos 1725 Rocket 4.0 05:52:07 38° N 05:54:47 81° E 06:01:07 10° S
Cosmos 1459 Rocket 3.9 05:55:56 59° WNW 05:56:33 62° W 06:02:46 10° S
IRS-1D 3.3 05:57:22 59° N 05:58:21 86° WNW 06:03:22 10° SSW
SL-16 R/B 3.7 05:53:50 10° SSE 05:59:42 41° E 06:05:31 10° NNE
Cosmos 836 Rocket 4.3 06:00:43 69° W 06:00:59 71° WSW 06:06:14 10° SSE
IRAS Rocket 4.1 06:00:28 61° NW 06:01:00 65° WNW 06:06:36 10° SSW
CZ-2C R/B 3.6 06:04:09 10° S 06:08:08 31° SW 06:08:08 31° SW
PAYLOAD A 4.3 06:12:12 49° W 06:12:12 49° W 06:17:26 10° SSW
Cosmos 1151 Rocket 2.9 06:10:41 10° SSW 06:15:05 69° W 06:15:19 67° WNW
H-2A R/B 1.8 06:14:02 34° N 06:16:12 66° W 06:21:10 10° SSW
Lacrosse 5 2.9 06:15:17 24° N 06:17:47 41° ENE 06:22:35 10° SE
USA 81 4.5 06:13:15 10° SSW 06:18:03 41° W 06:18:03 41° W
CZ-2C R/B 3.7 06:20:10 25° WSW 06:20:10 25° WSW 06:22:47 10° SSW
Meteor 1-18 Rocket 4.3 06:13:00 10° S 06:18:56 88° E 06:24:51 10° N
Cosmos 1943 4.4 06:14:10 10° N 06:19:26 41° ENE 06:24:44 10° SE
OAO 1 Rocket 4.3 06:18:32 46° W 06:20:12 84° N 06:25:36 10° E
Cosmos 1125 Rocket 3.4 06:15:53 10° SSW 06:21:07 63° WNW 06:26:14 10° N
Meteor 2-4 Rocket 3.7 06:18:23 10° SSW 06:24:02 62° W 06:29:48 10° N
Cosmos 1707 4.4 06:22:08 10° SSE 06:25:24 31° E 06:28:36 10° NE
Cosmos 2016 Rocket 4.1 06:23:37 31° NW 06:26:34 56° W 06:32:45 10° S
SL-16 R/B 2.5 06:26:08 38° WNW 06:27:48 49° WSW 06:33:22 10° S
Cosmos 1939 Rocket 2.9 06:24:08 10° NNE 06:27:52 72° ESE 06:31:40 10° S
ARGOS 3.5 06:22:39 10° NNE 06:28:02 68° ESE 06:33:30 10° S
Meteor 1-14 Rocket 4.5 06:22:44 10° N 06:28:38 75° E 06:34:29 10° SSE
Cosmos 1400 Rocket 2.9 06:25:22 10° SSW 06:29:12 51° W 06:29:12 51° W
NOSS 3-4 (A) 3.6 06:25:13 10° SSW 06:32:06 78° ESE 06:38:00 10° NE
NOSS 3-4 (C) 3.6 06:25:16 10° SSW 06:32:09 77° ESE 06:38:02 10° NE
Cosmos 2061 Rocket 3.9 06:30:15 16° NNW 06:35:19 68° W 06:41:39 10° S
Cosmos 1066 Rocket 4.2 06:29:53 10° S 06:35:35 87° W 06:41:22 10° N
Atlas Centaur 2 2.2 06:35:25 27° N 06:36:05 29° NNE 06:39:38 10° ENE
Thor Agena Rocket 3.7 06:35:04 10° N 06:40:07 50° W 06:45:12 10° SSW
Cosmos 1484 Rocket 2.4 06:43:43 10° N 06:47:18 70° W 06:50:53 10° SSW
Cosmos 1656 Rocket 3.7 06:43:50 10° SSW 06:49:28 84° ESE 06:55:07 10° NNE
SL-08 RB Rocket 3.9 06:47:48 10° NNE 06:52:23 80° ESE 06:57:04 10° S
KORONAS-FOTON 3.5 06:48:42 10° S 06:52:25 73° W 06:56:05 10° N
NOAA 12 4.4 06:54:21 10° NNE 06:59:39 72° ESE 07:05:02 10° S
Cosmos 1674 3.6 07:04:44 10° SW 07:07:24 22° W 07:08:16 20° WNW
ISS -2.2 07:11:29 17° WNW 07:11:46 17° NW 07:14:05 10° N
Cosmos 2369 Rocket 2.2 07:08:26 10° SSW 07:14:08 88° WNW 07:19:48 10° NNE
Cosmos 1538 Rocket 4.2 07:10:04 10° N 07:15:12 73° ENE 07:20:26 10° SSE
Okean 3 Rocket 3.9 07:13:32 10° NNW 07:17:55 49° W 07:22:22 10° S
CBERS-1 4.5 07:15:48 10° NNW 07:20:33 38° W 07:25:23 10° SSW
Cosmos 1733 3.8 07:19:11 10° NW 07:22:16 30° W 07:25:25 10° SSW
Cosmos 1515 Rocket 3.5 07:19:09 10° S 07:23:33 76° W 07:27:52 10° N
Cosmos 1500 Rocket 3.7 07:20:08 10° N 07:24:35 81° E 07:29:07 10° S
DMSP B5D2-2 4.1 07:21:19 10° S 07:26:34 69° WSW 07:31:46 10° NNW
Cosmos 1408 Rocket 3.5 07:24:05 10° NNW 07:28:21 67° W 07:32:42 10° S
Delta 2 Rocket 3.2 07:24:57 11° WNW 07:28:27 59° NNE 07:31:54 10° E
Cosmos 1536 3.9 07:29:54 10° NW 07:33:08 25° WSW 07:36:23 10° SSW
Sich 1 2.9 07:30:45 10° N 07:34:58 80° W 07:39:15 10° S
Cosmos 192 4.5 07:30:43 10° SSW 07:35:44 85° ESE 07:40:38 10° NNE
DELTA 2 R/B (1) 4.1 07:32:54 10° WSW 07:38:26 57° S 07:43:57 10° E
In-Cosmos 22 4.3 07:32:53 10° SSW 07:38:36 66° W 07:44:19 10° N
SL-16 R/B 3.5 07:37:47 10° S 07:43:00 29° WSW 07:48:12 10° WNW
